QPF
0.01 0.00 0.01 0.01 0.01 0.02 0.03 0.01 0.01 0.00 0.00 0.00 0.00 0.00 0.00 0.00 0.00 0.00 0.00 0.00 0.00 0.00 0.00 0.00 0.00 0.00 0.00 0.01 0.01 0.00 0.00 0.00 0.00 0.00 0.00 0.01 0.01 0.01 0.00 0.00 0.00 0.00 0.01
0.01 0.02 0.02 0.02 0.01 0.02 0.03 0.03 0.02 0.01 0.01 0.01 0.01 0.00 0.00 0.00 0.00 0.00 0.00 0.00 0.00 0.00 0.00 0.00 0.01 0.01 0.01 0.01 0.00 0.00 0.00 0.00 0.00 0.00 0.00 0.00 0.00 0.00 0.00 0.00 0.00 0.00 0.00
0.01 0.02 0.02 0.02 0.02 0.02 0.02 0.04 0.03 0.02 0.01 0.01 0.01 0.01 0.01 0.01 0.00 0.00 0.01 0.00 0.00 0.01 0.00 0.00 0.01 0.02 0.02 0.01 0.01 0.01 0.00 0.00 0.00 0.00 0.00 0.00 0.00 0.00 0.00 0.00 0.00 0.00 0.00
0.01 0.02 0.03 0.03 0.03 0.03 0.03 0.04 0.04 0.04 0.04 0.03 0.02 0.02 0.02 0.02 0.01 0.01 0.01 0.01 0.01 0.01 0.00 0.01 0.01 0.02 0.01 0.01 0.01 0.02 0.01 0.00 0.00 0.00 0.00 0.00 0.00 0.01 0.01 0.01 0.01 0.01 0.00
0.02 0.03 0.03 0.04 0.03 0.03 0.03 0.03 0.03 0.04 0.05 0.04 0.04 0.03 0.03 0.03 0.03 0.02 0.02 0.01 0.02 0.02 0.01 0.01 0.01 0.01 0.01 0.00 0.01 0.02 0.01 0.00 0.00 0.00 0.00 0.00 0.00 0.02 0.01 0.00 0.00 0.00 0.00
0.01 0.02 0.04 0.05 0.04 0.03 0.04 0.04 0.03 0.03 0.04 0.06 0.05 0.05 0.04 0.04 0.04 0.03 0.03 0.02 0.02 0.02 0.02 0.01 0.01 0.00 0.01 0.01 0.01 0.01 0.01 0.00 0.00 0.00 0.00 0.00 0.00 0.01 0.00 0.00 0.00 0.00 0.00
0.01 0.02 0.03 0.06 0.07 0.05 0.05 0.06 0.05 0.04 0.04 0.05 0.06 0.06 0.05 0.04 0.04 0.04 0.03 0.02 0.02 0.02 0.02 0.01 0.01 0.00 0.01 0.01 0.01 0.01 0.01 0.00 0.00 0.00 0.00 0.00 0.00 0.01 0.00 0.00 0.00 0.00 0.00
0.01 0.02 0.03 0.06 0.08 0.07 0.07 0.06 0.06 0.06 0.05 0.06 0.07 0.06 0.06 0.05 0.04 0.03 0.02 0.02 0.02 0.02 0.02 0.02 0.01 0.01 0.00 0.00 0.00 0.01 0.00 0.00 0.00 0.00 0.00 0.00 0.00 0.01 0.00 0.00 0.00 0.00 0.00
0.01 0.02 0.02 0.05 0.08 0.08 0.07 0.06 0.06 0.07 0.07 0.06 0.07 0.07 0.07 0.08 0.06 0.03 0.02 0.02 0.02 0.02 0.02 0.02 0.01 0.01 0.01 0.01 0.01 0.00 0.00 0.00 0.00 0.00 0.00 0.00 0.00 0.00 0.00 0.00 0.00 0.00 0.00
0.01 0.02 0.02 0.04 0.07 0.08 0.08 0.07 0.07 0.06 0.06 0.07 0.07 0.07 0.06 0.07 0.07 0.04 0.02 0.02 0.02 0.02 0.02 0.02 0.01 0.01 0.01 0.01 0.01 0.00 0.00 0.00 0.00 0.00 0.00 0.00 0.00 0.00 0.00 0.00 0.00 0.00 0.00
0.01 0.02 0.03 0.04 0.06 0.09 0.10 0.10 0.08 0.07 0.06 0.07 0.06 0.06 0.06 0.06 0.06 0.05 0.03 0.01 0.01 0.02 0.02 0.02 0.01 0.01 0.01 0.00 0.00 0.00 0.00 0.00 0.00 0.00 0.00 0.00 0.00 0.00 0.00 0.00 0.00 0.00 0.00
0.00 0.01 0.03 0.07 0.08 0.10 0.11 0.11 0.09 0.08 0.07 0.07 0.06 0.06 0.06 0.06 0.06 0.06 0.04 0.02 0.01 0.02 0.02 0.02 0.01 0.01 0.01 0.00 0.00 0.00 0.00 0.00 0.00 0.00 0.00 0.00 0.00 0.00 0.01 0.01 0.00 0.00 0.00
0.01 0.02 0.05 0.07 0.08 0.10 0.12 0.10 0.10 0.08 0.08 0.07 0.07 0.06 0.07 0.08 0.07 0.07 0.05 0.03 0.02 0.02 0.02 0.02 0.01 0.01 0.00 0.00 0.00 0.00 0.00 0.00 0.00 0.00 0.00 0.00 0.00 0.00 0.00 0.01 0.01 0.00 0.01
0.03 0.04 0.06 0.08 0.07 0.08 0.10 0.08 0.08 0.08 0.09 0.08 0.07 0.09 0.09 0.07 0.07 0.06 0.05 0.03 0.03 0.02 0.01 0.01 0.00 0.00 0.00 0.00 0.00 0.00 0.00 0.00 0.00 0.00 0.00 0.00 0.00 0.00 0.00 0.00 0.00 0.00 0.00
0.04 0.04 0.06 0.07 0.05 0.06 0.08 0.06 0.06 0.07 0.08 0.09 0.09 0.11 0.12 0.09 0.08 0.07 0.07 0.04 0.03 0.03 0.02 0.01 0.01 0.00 0.00 0.01 0.01 0.01 0.01 0.00 0.00 0.00 0.00 0.00 0.00 0.00 0.00 0.00 0.00 0.00 0.00
0.04 0.04 0.08 0.07 0.05 0.04 0.05 0.05 0.05 0.06 0.09 0.09 0.10 0.11 0.14 0.12 0.10 0.07 0.06 0.05 0.04 0.04 0.03 0.02 0.01 0.01 0.01 0.01 0.01 0.01 0.01 0.01 0.01 0.01 0.00 0.00 0.00 0.00 0.00 0.00 0.00 0.00 0.00
0.03 0.04 0.07 0.06 0.05 0.04 0.04 0.04 0.04 0.05 0.08 0.09 0.08 0.11 0.17 0.17 0.15 0.12 0.07 0.06 0.05 0.05 0.06 0.04 0.03 0.02 0.02 0.02 0.01 0.01 0.01 0.01 0.01 0.01 0.01 0.01 0.00 0.00 0.00 0.00 0.00 0.00 0.00
0.02 0.03 0.05 0.04 0.04 0.04 0.03 0.03 0.04 0.05 0.08 0.10 0.08 0.10 0.15 0.18 0.18 0.17 0.11 0.06 0.06 0.07 0.07 0.06 0.04 0.03 0.02 0.02 0.02 0.02 0.02 0.01 0.01 0.01 0.01 0.01 0.01 0.00 0.00 0.00 0.00 0.00 0.00
0.02 0.03 0.03 0.03 0.03 0.03 0.03 0.03 0.04 0.05 0.08 0.10 0.09 0.10 0.16 0.20 0.21 0.19 0.14 0.09 0.08 0.08 0.07 0.06 0.04 0.04 0.03 0.03 0.03 0.03 0.03 0.02 0.02 0.01 0.01 0.01 0.01 0.00 0.00 0.00 0.00 0.00 0.00
0.02 0.02 0.02 0.03 0.03 0.03 0.04 0.04 0.04 0.06 0.09 0.10 0.09 0.08 0.15 0.20 0.20 0.19 0.17 0.14 0.11 0.09 0.08 0.07 0.06 0.05 0.04 0.04 0.04 0.04 0.03 0.03 0.02 0.02 0.02 0.01 0.01 0.00 0.00 0.00 0.00 0.00 0.00
0.02 0.03 0.02 0.03 0.03 0.04 0.04 0.03 0.04 0.05 0.09 0.10 0.09 0.09 0.15 0.18 0.18 0.16 0.15 0.14 0.14 0.12 0.09 0.08 0.07 0.06 0.05 0.05 0.05 0.05 0.04 0.03 0.02 0.02 0.03 0.03 0.02 0.01 0.01 0.01 0.00 0.00 0.00
0.03 0.06 0.06 0.03 0.04 0.05 0.04 0.02 0.03 0.04 0.07 0.10 0.10 0.11 0.15 0.18 0.16 0.15 0.14 0.12 0.12 0.11 0.11 0.09 0.08 0.06 0.05 0.04 0.05 0.05 0.05 0.05 0.03 0.02 0.02 0.03 0.03 0.03 0.02 0.01 0.01 0.01 0.01
0.03 0.04 0.05 0.05 0.04 0.05 0.04 0.02 0.03 0.05 0.07 0.10 0.11 0.15 0.18 0.18 0.16 0.13 0.12 0.10 0.11 0.11 0.10 0.09 0.09 0.08 0.07 0.06 0.06 0.06 0.05 0.06 0.05 0.03 0.02 0.03 0.04 0.05 0.05 0.04 0.04 0.04 0.03
0.02 0.03 0.05 0.06 0.05 0.05 0.04 0.03 0.04 0.05 0.08 0.10 0.12 0.17 0.20 0.20 0.19 0.15 0.12 0.10 0.09 0.12 0.11 0.11 0.08 0.08 0.08 0.08 0.08 0.08 0.07 0.06 0.06 0.05 0.04 0.03 0.03 0.04 0.05 0.05 0.04 0.03 0.03
0.02 0.03 0.04 0.04 0.04 0.04 0.05 0.04 0.05 0.06 0.07 0.09 0.11 0.16 0.18 0.17 0.16 0.15 0.15 0.13 0.10 0.12 0.13 0.13 0.11 0.08 0.07 0.06 0.06 0.07 0.09 0.09 0.08 0.07 0.05 0.04 0.03 0.03 0.03 0.03 0.03 0.02 0.02
0.04 0.05 0.05 0.04 0.03 0.05 0.07 0.05 0.05 0.06 0.06 0.07 0.09 0.11 0.11 0.12 0.12 0.12 0.14 0.14 0.12 0.13 0.14 0.14 0.13 0.10 0.08 0.06 0.06 0.06 0.07 0.09 0.09 0.08 0.07 0.04 0.04 0.03 0.03 0.04 0.03 0.03 0.03
MSLP
1016.51 1015.80 1015.11 1014.55 1014.20 1014.09 1014.18 1014.38 1014.62 1014.83 1014.95 1015.00 1015.01 1015.03 1015.12 1015.28 1015.52 1015.81 1016.10 1016.34 1016.50 1016.59 1016.63 1016.65 1016.70 1016.80 1016.96 1017.16 1017.37 1017.56 1017.69 1017.76 1017.76 1017.72 1017.68 1017.67 1017.69 1017.75 1017.82 1017.88 1017.91 1017.89 1017.82
1016.55 1015.88 1015.22 1014.69 1014.35 1014.22 1014.28 1014.44 1014.63 1014.80 1014.90 1014.96 1015.01 1015.08 1015.22 1015.45 1015.73 1016.05 1016.34 1016.57 1016.71 1016.77 1016.79 1016.79 1016.84 1016.94 1017.11 1017.33 1017.56 1017.76 1017.91 1017.98 1017.99 1017.97 1017.95 1017.95 1017.98 1018.06 1018.15 1018.23 1018.28 1018.28 1018.23
1016.49 1015.88 1015.28 1014.79 1014.49 1014.37 1014.41 1014.54 1014.69 1014.82 1014.91 1014.96 1015.02 1015.13 1015.31 1015.57 1015.88 1016.21 1016.49 1016.71 1016.83 1016.87 1016.86 1016.86 1016.90 1017.02 1017.21 1017.44 1017.69 1017.92 1018.08 1018.17 1018.21 1018.20 1018.19 1018.21 1018.26 1018.34 1018.45 1018.54 1018.61 1018.63 1018.61
1016.36 1015.82 1015.30 1014.88 1014.64 1014.55 1014.59 1014.69 1014.81 1014.90 1014.95 1014.98 1015.03 1015.15 1015.34 1015.61 1015.93 1016.26 1016.54 1016.74 1016.85 1016.88 1016.88 1016.88 1016.93 1017.06 1017.27 1017.53 1017.80 1018.05 1018.23 1018.35 1018.41 1018.43 1018.43 1018.46 1018.51 1018.60 1018.70 1018.80 1018.88 1018.93 1018.94
1016.22 1015.74 1015.30 1014.98 1014.80 1014.76 1014.81 1014.90 1014.97 1015.00 1015.00 1014.99 1015.02 1015.11 1015.30 1015.56 1015.88 1016.21 1016.48 1016.68 1016.80 1016.84 1016.85 1016.88 1016.96 1017.12 1017.35 1017.62 1017.92 1018.18 1018.39 1018.53 1018.60 1018.64 1018.66 1018.69 1018.75 1018.83 1018.92 1019.02 1019.10 1019.16 1019.20
1016.10 1015.68 1015.33 1015.10 1015.00 1015.00 1015.06 1015.12 1015.14 1015.12 1015.05 1014.99 1014.97 1015.03 1015.19 1015.44 1015.74 1016.06 1016.34 1016.55 1016.69 1016.77 1016.82 1016.89 1017.01 1017.20 1017.45 1017.75 1018.05 1018.32 1018.54 1018.69 1018.79 1018.84 1018.87 1018.91 1018.96 1019.03 1019.11 1019.20 1019.28 1019.35 1019.41
1016.03 1015.67 1015.40 1015.24 1015.21 1015.24 1015.30 1015.33 1015.30 1015.21 1015.08 1014.96 1014.89 1014.91 1015.04 1015.26 1015.55 1015.86 1016.15 1016.39 1016.56 1016.69 1016.80 1016.93 1017.10 1017.32 1017.60 1017.90 1018.19 1018.46 1018.68 1018.83 1018.94 1019.00 1019.04 1019.09 1019.14 1019.21 1019.28 1019.36 1019.43 1019.51 1019.58
1016.02 1015.71 1015.50 1015.42 1015.43 1015.48 1015.52 1015.51 1015.43 1015.28 1015.09 1014.92 1014.80 1014.79 1014.89 1015.09 1015.36 1015.67 1015.97 1016.23 1016.45 1016.63 1016.80 1016.99 1017.21 1017.46 1017.75 1018.05 1018.33 1018.57 1018.77 1018.92 1019.02 1019.10 1019.16 1019.22 1019.29 1019.36 1019.44 1019.52 1019.59 1019.67 1019.75
1016.06 1015.80 1015.65 1015.61 1015.64 1015.69 1015.70 1015.65 1015.52 1015.32 1015.09 1014.89 1014.75 1014.72 1014.79 1014.97 1015.23 1015.52 1015.81 1016.09 1016.34 1016.57 1016.80 1017.04 1017.31 1017.59 1017.88 1018.16 1018.42 1018.63 1018.80 1018.93 1019.03 1019.11 1019.20 1019.29 1019.38 1019.48 1019.58 1019.68 1019.76 1019.85 1019.94
1016.15 1015.94 1015.83 1015.81 1015.84 1015.87 1015.84 1015.75 1015.57 1015.35 1015.10 1014.89 1014.76 1014.72 1014.78 1014.94 1015.16 1015.43 1015.70 1015.97 1016.24 1016.50 1016.77 1017.06 1017.35 1017.66 1017.95 1018.21 1018.44 1018.61 1018.75 1018.85 1018.95 1019.04 1019.15 1019.28 1019.42 1019.56 1019.70 1019.83 1019.94 1020.04 1020.15
1016.27 1016.11 1016.04 1016.02 1016.03 1016.01 1015.94 1015.80 1015.60 1015.36 1015.12 1014.93 1014.82 1014.79 1014.85 1014.99 1015.17 1015.39 1015.63 1015.87 1016.12 1016.39 1016.68 1017.00 1017.32 1017.64 1017.93 1018.18 1018.38 1018.52 1018.63 1018.71 1018.79 1018.90 1019.04 1019.20 1019.39 1019.59 1019.77 1019.94 1020.08 1020.21 1020.33
1016.44 1016.33 1016.27 1016.24 1016.20 1016.13 1016.00 1015.82 1015.59 1015.36 1015.16 1015.00 1014.92 1014.92 1014.98 1015.09 1015.23 1015.38 1015.56 1015.74 1015.96 1016.22 1016.51 1016.84 1017.19 1017.53 1017.83 1018.08 1018.26 1018.38 1018.46 1018.52 1018.60 1018.71 1018.86 1019.06 1019.29 1019.54 1019.77 1019.98 1020.16 1020.32 1020.46
1016.65 1016.58 1016.53 1016.46 1016.37 1016.23 1016.03 1015.80 1015.56 1015.34 1015.17 1015.07 1015.03 1015.04 1015.10 1015.19 1015.27 1015.36 1015.45 1015.58 1015.74 1015.97 1016.26 1016.60 1016.97 1017.33 1017.66 1017.92 1018.11 1018.22 1018.29 1018.34 1018.40 1018.51 1018.67 1018.88 1019.14 1019.41 1019.68 1019.93 1020.15 1020.33 1020.49
1016.93 1016.88 1016.81 1016.70 1016.53 1016.31 1016.05 1015.77 1015.51 1015.30 1015.16 1015.09 1015.08 1015.12 1015.18 1015.23 1015.26 1015.27 1015.30 1015.35 1015.46 1015.65 1015.93 1016.28 1016.67 1017.07 1017.43 1017.72 1017.93 1018.06 1018.13 1018.18 1018.23 1018.33 1018.48 1018.68 1018.94 1019.22 1019.50 1019.77 1020.01 1020.21 1020.39
1017.28 1017.23 1017.13 1016.95 1016.70 1016.39 1016.06 1015.73 1015.44 1015.22 1015.09 1015.04 1015.05 1015.10 1015.14 1015.16 1015.15 1015.10 1015.06 1015.05 1015.12 1015.28 1015.54 1015.90 1016.31 1016.75 1017.15 1017.49 1017.74 1017.91 1018.00 1018.06 1018.11 1018.18 1018.31 1018.49 1018.72 1018.99 1019.26 1019.52 1019.77 1019.98 1020.17
1017.69 1017.62 1017.46 1017.21 1016.88 1016.48 1016.07 1015.68 1015.35 1015.11 1014.97 1014.91 1014.92 1014.95 1014.98 1014.97 1014.92 1014.83 1014.75 1014.71 1014.74 1014.88 1015.13 1015.49 1015.92 1016.38 1016.83 1017.21 1017.52 1017.73 1017.86 1017.94 1018.00 1018.07 1018.17 1018.32 1018.51 1018.73 1018.97 1019.21 1019.44 1019.66 1019.85
1018.14 1018.02 1017.80 1017.47 1017.06 1016.59 1016.11 1015.66 1015.28 1014.99 1014.81 1014.72 1014.69 1014.70 1014.69 1014.65 1014.58 1014.48 1014.38 1014.32 1014.34 1014.47 1014.71 1015.06 1015.49 1015.96 1016.44 1016.86 1017.22 1017.48 1017.67 1017.79 1017.88 1017.95 1018.04 1018.15 1018.30 1018.47 1018.67 1018.88 1019.09 1019.29 1019.48
1018.60 1018.41 1018.11 1017.71 1017.23 1016.70 1016.17 1015.66 1015.23 1014.89 1014.64 1014.49 1014.41 1014.36 1014.31 1014.25 1014.17 1014.07 1013.98 1013.93 1013.95 1014.06 1014.29 1014.61 1015.03 1015.49 1015.96 1016.40 1016.80 1017.12 1017.36 1017.54 1017.67 1017.77 1017.86 1017.96 1018.08 1018.21 1018.37 1018.55 1018.74 1018.93 1019.12
1019.00 1018.74 1018.38 1017.92 1017.40 1016.83 1016.26 1015.71 1015.22 1014.81 1014.49 1014.26 1014.09 1013.97 1013.88 1013.80 1013.71 1013.63 1013.57 1013.54 1013.57 1013.68 1013.87 1014.16 1014.52 1014.93 1015.38 1015.81 1016.22 1016.59 1016.89 1017.14 1017.33 1017.48 1017.60 1017.71 1017.82 1017.94 1018.07 1018.22 1018.39 1018.58 1018.77
1019.33 1018.99 1018.57 1018.08 1017.53 1016.95 1016.36 1015.79 1015.26 1014.78 1014.38 1014.04 1013.78 1013.58 1013.43 1013.31 1013.23 1013.17 1013.14 1013.15 1013.19 1013.29 1013.46 1013.68 1013.97 1014.31 1014.69 1015.09 1015.49 1015.88 1016.24 1016.56 1016.83 1017.04 1017.22 1017.37 1017.49 1017.61 1017.73 1017.88 1018.04 1018.23 1018.43
1019.55 1019.15 1018.68 1018.16 1017.61 1017.04 1016.46 1015.88 1015.32 1014.79 1014.29 1013.85 1013.48 1013.18 1012.96 1012.81 1012.72 1012.68 1012.69 1012.73 1012.80 1012.90 1013.02 1013.18 1013.38 1013.63 1013.93 1014.27 1014.64 1015.04 1015.43 1015.81 1016.16 1016.45 1016.70 1016.90 1017.06 1017.20 1017.33 1017.48 1017.64 1017.84 1018.06
1019.66 1019.20 1018.70 1018.17 1017.64 1017.09 1016.53 1015.96 1015.38 1014.79 1014.21 1013.67 1013.18 1012.78 1012.48 1012.27 1012.17 1012.15 1012.19 1012.26 1012.36 1012.45 1012.55 1012.65 1012.78 1012.93 1013.14 1013.41 1013.73 1014.11 1014.52 1014.95 1015.35 1015.72 1016.03 1016.29 1016.50 1016.67 1016.82 1016.98 1017.16 1017.37 1017.61
1019.67 1019.17 1018.64 1018.12 1017.60 1017.08 1016.55 1015.98 1015.39 1014.75 1014.10 1013.46 1012.86 1012.35 1011.95 1011.68 1011.54 1011.52 1011.58 1011.69 1011.82 1011.93 1012.02 1012.09 1012.16 1012.24 1012.37 1012.57 1012.84 1013.19 1013.60 1014.04 1014.48 1014.90 1015.26 1015.57 1015.82 1016.02 1016.20 1016.38 1016.57 1016.79 1017.04
1019.63 1019.09 1018.54 1018.00 1017.49 1016.99 1016.48 1015.93 1015.32 1014.65 1013.92 1013.19 1012.48 1011.86 1011.36 1011.01 1010.82 1010.77 1010.84 1010.98 1011.14 1011.29 1011.40 1011.48 1011.53 1011.58 1011.66 1011.81 1012.04 1012.35 1012.73 1013.16 1013.62 1014.05 1014.44 1014.77 1015.05 1015.27 1015.47 1015.66 1015.86 1016.09 1016.35
1019.57 1018.99 1018.41 1017.86 1017.34 1016.84 1016.34 1015.79 1015.16 1014.46 1013.67 1012.85 1012.04 1011.30 1010.69 1010.24 1009.98 1009.89 1009.96 1010.11 1010.32 1010.52 1010.68 1010.80 1010.88 1010.94 1011.02 1011.15 1011.34 1011.62 1011.97 1012.37 1012.80 1013.23 1013.61 1013.95 1014.23 1014.47 1014.67 1014.87 1015.08 1015.32 1015.59
1019.52 1018.91 1018.30 1017.71 1017.17 1016.66 1016.14 1015.58 1014.94 1014.20 1013.36 1012.46 1011.55 1010.70 1009.97 1009.41 1009.06 1008.91 1008.94 1009.10 1009.34 1009.60 1009.84 1010.04 1010.19 1010.31 1010.43 1010.56 1010.75 1011.00 1011.32 1011.68 1012.06 1012.45 1012.81 1013.14 1013.41 1013.65 1013.86 1014.06 1014.28 1014.52 1014.79
Thickness
5743 5748 5751 5752 5753 5753 5753 5754 5753 5753 5753 5752 5752 5751 5751 5751 5750 5749 5749 5748 5747 5746 5745 5744 5743 5742 5741 5740 5739 5738 5737 5735 5734 5733 5732 5732 5731 5730 5728 5727 5727 5726 5725
5742 5745 5747 5748 5749 5749 5749 5749 5749 5749 5749 5749 5748 5748 5748 5748 5747 5747 5746 5745 5744 5744 5743 5742 5741 5740 5739 5738 5736 5735 5734 5732 5731 5730 5729 5728 5728 5726 5725 5724 5723 5723 5722
5738 5740 5742 5743 5744 5745 5745 5745 5745 5745 5745 5745 5745 5745 5745 5744 5744 5744 5743 5742 5742 5741 5740 5739 5738 5737 5736 5735 5733 5732 5730 5729 5728 5726 5726 5725 5724 5723 5722 5721 5720 5720 5719
5732 5734 5736 5738 5739 5740 5740 5741 5741 5741 5741 5741 5742 5742 5741 5741 5741 5741 5740 5739 5739 5738 5737 5736 5735 5734 5733 5732 5730 5729 5727 5726 5725 5723 5723 5722 5721 5721 5720 5718 5717 5716 5715
5726 5728 5730 5732 5733 5734 5735 5735 5736 5736 5737 5737 5738 5738 5738 5738 5738 5737 5737 5736 5736 5735 5734 5733 5732 5731 5730 5729 5727 5726 5724 5723 5722 5721 5720 5719 5719 5718 5717 5715 5714 5713 5712
5718 5720 5723 5725 5726 5728 5729 5730 5731 5731 5732 5733 5734 5734 5734 5734 5734 5734 5734 5733 5732 5731 5730 5729 5729 5728 5727 5726 5725 5723 5722 5720 5719 5718 5717 5716 5716 5715 5713 5712 5711 5710 5709
5709 5712 5715 5717 5719 5721 5722 5723 5725 5726 5727 5728 5729 5730 5730 5731 5731 5730 5730 5730 5729 5728 5727 5726 5725 5724 5724 5723 5722 5720 5719 5718 5716 5715 5714 5713 5712 5712 5710 5709 5708 5706 5705
5701 5704 5706 5709 5711 5713 5715 5717 5719 5720 5722 5723 5724 5725 5726 5726 5727 5726 5726 5726 5726 5725 5724 5723 5722 5721 5720 5719 5718 5717 5716 5715 5713 5712 5711 5710 5709 5709 5707 5705 5704 5703 5702
5691 5694 5697 5700 5703 5706 5708 5711 5713 5714 5716 5718 5719 5720 5721 5722 5722 5723 5722 5722 5722 5721 5720 5720 5719 5718 5717 5716 5715 5714 5713 5711 5710 5709 5708 5707 5706 5705 5704 5702 5701 5699 5698
5681 5684 5687 5691 5694 5698 5700 5703 5706 5708 5710 5712 5713 5715 5716 5717 5718 5718 5718 5718 5718 5717 5716 5716 5715 5714 5713 5713 5712 5711 5709 5708 5707 5706 5705 5704 5703 5702 5701 5699 5697 5696 5695
5670 5674 5678 5682 5685 5689 5692 5695 5698 5701 5703 5706 5708 5709 5710 5711 5712 5713 5714 5714 5714 5713 5712 5712 5711 5710 5710 5709 5708 5707 5706 5705 5704 5703 5702 5701 5700 5699 5698 5696 5694 5693 5691
5658 5663 5668 5672 5677 5680 5684 5687 5690 5693 5696 5699 5702 5703 5704 5706 5707 5709 5709 5709 5709 5709 5708 5708 5707 5706 5706 5705 5704 5703 5702 5701 5700 5700 5699 5698 5697 5696 5695 5693 5691 5689 5688
5648 5653 5658 5663 5668 5671 5675 5678 5682 5685 5689 5692 5695 5697 5699 5700 5702 5703 5703 5703 5703 5703 5703 5703 5702 5702 5701 5701 5700 5700 5699 5697 5697 5696 5696 5695 5694 5693 5692 5690 5688 5686 5685
5639 5644 5649 5654 5658 5662 5666 5670 5673 5677 5681 5685 5689 5691 5693 5694 5696 5698 5699 5699 5699 5699 5699 5698 5698 5697 5696 5696 5696 5695 5695 5694 5693 5693 5692 5692 5691 5690 5689 5687 5685 5683 5682
5631 5635 5639 5644 5648 5653 5657 5661 5666 5669 5673 5677 5681 5684 5687 5689 5691 5692 5694 5694 5694 5694 5694 5693 5693 5692 5692 5691 5691 5691 5691 5690 5690 5689 5689 5688 5688 5686 5685 5684 5682 5680 5679
5622 5626 5630 5634 5638 5643 5648 5652 5657 5661 5665 5669 5674 5677 5680 5683 5685 5687 5689 5689 5690 5690 5690 5689 5688 5687 5687 5687 5686 5687 5687 5686 5686 5685 5685 5684 5684 5683 5682 5680 5678 5677 5675
5613 5617 5621 5625 5628 5633 5637 5642 5647 5652 5657 5661 5665 5669 5673 5676 5679 5681 5683 5684 5685 5685 5684 5683 5682 5682 5681 5681 5681 5682 5682 5682 5681 5681 5681 5680 5679 5678 5677 5676 5675 5673 5672
5605 5608 5611 5615 5619 5623 5627 5632 5638 5643 5647 5652 5657 5661 5666 5669 5673 5675 5676 5678 5679 5679 5678 5677 5677 5675 5675 5675 5676 5676 5677 5677 5677 5677 5676 5676 5675 5674 5673 5672 5671 5670 5668
5596 5599 5602 5605 5608 5613 5617 5622 5627 5632 5638 5643 5648 5652 5657 5662 5665 5667 5669 5671 5672 5672 5672 5672 5670 5670 5669 5669 5670 5670 5671 5671 5671 5671 5671 5671 5670 5669 5668 5667 5667 5665 5664
5588 5591 5593 5596 5599 5603 5607 5611 5617 5622 5627 5632 5638 5643 5648 5653 5657 5660 5661 5663 5665 5665 5665 5664 5664 5664 5664 5663 5663 5663 5664 5665 5666 5666 5666 5665 5665 5664 5663 5662 5661 5660 5659
5580 5583 5585 5588 5591 5594 5597 5601 5606 5611 5616 5621 5627 5633 5639 5644 5648 5651 5653 5654 5657 5658 5658 5658 5657 5656 5656 5655 5654 5653 5656 5658 5659 5660 5661 5660 5660 5659 5658 5657 5656 5655 5653
5571 5574 5577 5580 5583 5586 5589 5593 5598 5602 5606 5612 5617 5623 5629 5634 5638 5642 5644 5646 5648 5649 5650 5650 5650 5649 5649 5649 5648 5645 5644 5647 5652 5655 5655 5655 5655 5654 5653 5652 5651 5649 5648
5564 5567 5570 5572 5576 5579 5582 5586 5590 5593 5598 5602 5606 5612 5618 5623 5628 5632 5635 5636 5638 5640 5641 5642 5642 5642 5641 5642 5643 5641 5638 5640 5642 5646 5648 5649 5648 5647 5647 5646 5645 5644 5642
5558 5560 5563 5565 5568 5572 5575 5578 5581 5584 5588 5592 5596 5602 5608 5613 5618 5620 5623 5625 5627 5629 5631 5634 5635 5636 5635 5634 5635 5636 5637 5638 5635 5636 5639 5641 5641 5640 5640 5639 5638 5637 5636
5552 5554 5556 5558 5561 5564 5568 5570 5573 5576 5579 5582 5587 5593 5598 5603 5607 5610 5612 5615 5617 5620 5622 5624 5626 5627 5628 5628 5628 5628 5627 5628 5629 5628 5629 5630 5631 5633 5633 5632 5631 5630 5629
5546 5547 5549 5551 5554 5557 5559 5561 5564 5568 5571 5575 5580 5585 5589 5592 5596 5599 5602 5605 5607 5609 5612 5615 5617 5619 5620 5620 5621 5620 5619 5618 5619 5618 5619 5621 5622 5625 5625 5625 5624 5623 5621